Time,TemperatureF,DewpointF,PressureIn,WindDirection,WindDirectionDegrees,WindSpeedMPH,WindSpeedGustMPH,Humidity,HourlyPrecipIn,Conditions,Clouds,dailyrainin,SoftwareType,DateUTC
2013-11-08 00:04:00,28.0,-99.9,-100.00,North,-999,-999.0,-999.0,-999,0.00,,,0.00,,2013-11-08 06:04:00,
2013-11-08 00:13:00,28.0,-99.9,-100.00,North,-999,-999.0,-999.0,-999,0.00,,,0.00,,2013-11-08 06:13:00,
2013-11-08 00:23:00,28.0,-99.9,-100.00,North,-999,-999.0,-999.0,-999,0.00,,,0.00,,2013-11-08 06:23:00,
2013-11-08 00:30:00,25.0,-99.9,-100.00,North,-999,-999.0,-999.0,-999,0.00,,,0.00,,2013-11-08 06:30:00,
2013-11-08 00:53:00,25.0,-99.9,-100.00,North,-999,-999.0,-999.0,-999,0.00,,,0.00,,2013-11-08 06:53:00,
2013-11-08 01:02:00,25.0,-99.9,-100.00,North,-999,-999.0,-999.0,-999,0.00,,,0.00,,2013-11-08 07:02:00,
2013-11-08 01:12:00,25.0,-99.9,-100.00,North,-999,-999.0,-999.0,-999,0.00,,,0.00,,2013-11-08 07:12:00,
2013-11-08 01:22:00,25.0,-99.9,-100.00,North,-999,-999.0,-999.0,-999,0.00,,,0.00,,2013-11-08 07:22:00,
2013-11-08 01:30:00,23.0,-99.9,-100.00,North,-999,-999.0,-999.0,-999,0.00,,,0.00,,2013-11-08 07:30:00,
2013-11-08 01:52:00,23.0,-99.9,-100.00,North,-999,-999.0,-999.0,-999,0.00,,,0.00,,2013-11-08 07:52:00,
2013-11-08 02:02:00,23.0,-99.9,-100.00,North,-999,-999.0,-999.0,-999,0.00,,,0.00,,2013-11-08 08:02:00,
2013-11-08 02:12:00,23.0,-99.9,-100.00,North,-999,-999.0,-999.0,-999,0.00,,,0.00,,2013-11-08 08:12:00,
2013-11-08 02:22:00,23.0,-99.9,-100.00,North,-999,-999.0,-999.0,-999,0.00,,,0.00,,2013-11-08 08:22:00,
2013-11-08 02:30:00,21.0,-99.9,-100.00,North,-999,-999.0,-999.0,-999,0.00,,,-99.99,,2013-11-08 08:30:00,
2013-11-08 02:52:00,21.0,-99.9,-100.00,North,-999,-999.0,-999.0,-999,0.00,,,-99.99,,2013-11-08 08:52:00,
2013-11-08 03:03:00,21.0,-99.9,-100.00,North,-999,-999.0,-999.0,-999,0.00,,,-99.99,,2013-11-08 09:03:00,
2013-11-08 03:12:00,21.0,-99.9,-100.00,North,-999,-999.0,-999.0,-999,0.00,,,-99.99,,2013-11-08 09:12:00,
2013-11-08 03:22:00,21.0,-99.9,-100.00,North,-999,-999.0,-999.0,-999,0.00,,,-99.99,,2013-11-08 09:22:00,
2013-11-08 03:30:00,19.0,-99.9,-100.00,North,-999,-999.0,-999.0,-999,0.00,,,0.00,,2013-11-08 09:30:00,
2013-11-08 03:54:00,19.0,-99.9,-100.00,North,-999,-999.0,-999.0,-999,0.00,,,0.00,,2013-11-08 09:54:00,
2013-11-08 04:03:00,19.0,-99.9,-100.00,North,-999,-999.0,-999.0,-999,0.00,,,0.00,,2013-11-08 10:03:00,
2013-11-08 04:13:00,19.0,-99.9,-100.00,North,-999,-999.0,-999.0,-999,0.00,,,0.00,,2013-11-08 10:13:00,
2013-11-08 04:23:00,19.0,-99.9,-100.00,North,-999,-999.0,-999.0,-999,0.00,,,0.00,,2013-11-08 10:23:00,
2013-11-08 04:30:00,18.0,-99.9,-100.00,North,-999,-999.0,-999.0,-999,0.00,,,0.00,,2013-11-08 10:30:00,
2013-11-08 04:53:00,18.0,-99.9,-100.00,North,-999,-999.0,-999.0,-999,0.00,,,0.00,,2013-11-08 10:53:00,
2013-11-08 05:02:00,18.0,-99.9,-100.00,North,-999,-999.0,-999.0,-999,0.00,,,0.00,,2013-11-08 11:02:00,
2013-11-08 05:12:00,18.0,-99.9,-100.00,North,-999,-999.0,-999.0,-999,0.00,,,0.00,,2013-11-08 11:12:00,
2013-11-08 05:22:00,18.0,-99.9,-100.00,North,-999,-999.0,-999.0,-999,0.00,,,0.00,,2013-11-08 11:22:00,
2013-11-08 05:30:00,17.0,-99.9,-100.00,North,-999,-999.0,-999.0,-999,0.00,,,0.00,,2013-11-08 11:30:00,
2013-11-08 05:52:00,17.0,-99.9,-100.00,North,-999,-999.0,-999.0,-999,0.00,,,0.00,,2013-11-08 11:52:00,
2013-11-08 06:02:00,17.0,-99.9,-100.00,North,-999,-999.0,-999.0,-999,0.00,,,0.00,,2013-11-08 12:02:00,
2013-11-08 06:12:00,17.0,-99.9,-100.00,North,-999,-999.0,-999.0,-999,0.00,,,0.00,,2013-11-08 12:12:00,
2013-11-08 06:22:00,17.0,-99.9,-100.00,North,-999,-999.0,-999.0,-999,0.00,,,0.00,,2013-11-08 12:22:00,
2013-11-08 06:30:00,17.0,-99.9,-100.00,North,-999,-999.0,-999.0,-999,0.00,,,0.00,,2013-11-08 12:30:00,
2013-11-08 06:52:00,17.0,-99.9,-100.00,North,-999,-999.0,-999.0,-999,0.00,,,0.00,,2013-11-08 12:52:00,
2013-11-08 07:02:00,17.0,-99.9,-100.00,North,-999,-999.0,-999.0,-999,0.00,,,0.00,,2013-11-08 13:02:00,
2013-11-08 07:11:00,17.0,-99.9,-100.00,North,-999,-999.0,-999.0,-999,0.00,,,0.00,,2013-11-08 13:11:00,
2013-11-08 07:22:00,17.0,-99.9,-100.00,North,-999,-999.0,-999.0,-999,0.00,,,0.00,,2013-11-08 13:22:00,
2013-11-08 07:30:00,17.0,-99.9,-100.00,North,-999,-999.0,-999.0,-999,0.00,,,0.00,,2013-11-08 13:30:00,
2013-11-08 07:52:00,17.0,-99.9,-100.00,North,-999,-999.0,-999.0,-999,0.00,,,0.00,,2013-11-08 13:52:00,
2013-11-08 08:02:00,17.0,-99.9,-100.00,North,-999,-999.0,-999.0,-999,0.00,,,0.00,,2013-11-08 14:02:00,
2013-11-08 08:11:00,17.0,-99.9,-100.00,North,-999,-999.0,-999.0,-999,0.00,,,0.00,,2013-11-08 14:11:00,
2013-11-08 08:22:00,17.0,-99.9,-100.00,North,-999,-999.0,-999.0,-999,0.00,,,0.00,,2013-11-08 14:22:00,
2013-11-08 08:30:00,23.0,-99.9,-100.00,North,-999,-999.0,-999.0,-999,0.00,,,0.00,,2013-11-08 14:30:00,
2013-11-08 08:52:00,23.0,-99.9,-100.00,North,-999,-999.0,-999.0,-999,0.00,,,0.00,,2013-11-08 14:52:00,
2013-11-08 09:02:00,23.0,-99.9,-100.00,North,-999,-999.0,-999.0,-999,0.00,,,0.00,,2013-11-08 15:02:00,
2013-11-08 09:11:00,23.0,-99.9,-100.00,North,-999,-999.0,-999.0,-999,0.00,,,0.00,,2013-11-08 15:11:00,
2013-11-08 09:22:00,23.0,-99.9,-100.00,North,-999,-999.0,-999.0,-999,0.00,,,0.00,,2013-11-08 15:22:00,
2013-11-08 09:30:00,29.0,-99.9,-100.00,North,-999,-999.0,-999.0,-999,0.00,,,0.00,,2013-11-08 15:30:00,
2013-11-08 09:53:00,29.0,-99.9,-100.00,North,-999,-999.0,-999.0,-999,0.00,,,0.00,,2013-11-08 15:53:00,
2013-11-08 10:03:00,29.0,-99.9,-100.00,North,-999,-999.0,-999.0,-999,0.00,,,0.00,,2013-11-08 16:03:00,
2013-11-08 10:13:00,29.0,-99.9,-100.00,North,-999,-999.0,-999.0,-999,0.00,,,0.00,,2013-11-08 16:13:00,
2013-11-08 10:23:00,29.0,-99.9,-100.00,North,-999,-999.0,-999.0,-999,0.00,,,0.00,,2013-11-08 16:23:00,
2013-11-08 10:30:00,33.0,-99.9,-100.00,North,-999,-999.0,-999.0,-999,0.00,,,0.00,,2013-11-08 16:30:00,
2013-11-08 10:53:00,33.0,-99.9,-100.00,North,-999,-999.0,-999.0,-999,0.00,,,0.00,,2013-11-08 16:53:00,
2013-11-08 11:02:00,33.0,-99.9,-100.00,North,-999,-999.0,-999.0,-999,0.00,,,0.00,,2013-11-08 17:02:00,
2013-11-08 11:12:00,33.0,-99.9,-100.00,North,-999,-999.0,-999.0,-999,0.00,,,0.00,,2013-11-08 17:12:00,
2013-11-08 11:22:00,33.0,-99.9,-100.00,North,-999,-999.0,-999.0,-999,0.00,,,0.00,,2013-11-08 17:22:00,
2013-11-08 11:30:00,36.0,-99.9,-100.00,North,-999,-999.0,-999.0,-999,0.00,,,0.00,,2013-11-08 17:30:00,
2013-11-08 11:53:00,36.0,-99.9,-100.00,North,-999,-999.0,-999.0,-999,0.00,,,0.00,,2013-11-08 17:53:00,
2013-11-08 12:02:00,36.0,-99.9,-100.00,North,-999,-999.0,-999.0,-999,0.00,,,0.00,,2013-11-08 18:02:00,
2013-11-08 12:12:00,36.0,-99.9,-100.00,North,-999,-999.0,-999.0,-999,0.00,,,0.00,,2013-11-08 18:12:00,
2013-11-08 12:22:00,36.0,-99.9,-100.00,North,-999,-999.0,-999.0,-999,0.00,,,0.00,,2013-11-08 18:22:00,
2013-11-08 12:30:00,38.0,-99.9,-100.00,North,-999,-999.0,-999.0,-999,0.01,,,0.01,,2013-11-08 18:30:00,
2013-11-08 12:53:00,38.0,-99.9,-100.00,North,-999,-999.0,-999.0,-999,0.01,,,0.01,,2013-11-08 18:53:00,
2013-11-08 13:02:00,38.0,-99.9,-100.00,North,-999,-999.0,-999.0,-999,0.01,,,0.01,,2013-11-08 19:02:00,
2013-11-08 13:12:00,38.0,-99.9,-100.00,North,-999,-999.0,-999.0,-999,0.01,,,0.01,,2013-11-08 19:12:00,
2013-11-08 13:22:00,38.0,-99.9,-100.00,North,-999,-999.0,-999.0,-999,0.01,,,0.01,,2013-11-08 19:22:00,
2013-11-08 13:30:00,38.0,-99.9,-100.00,North,-999,-999.0,-999.0,-999,0.02,,,0.03,,2013-11-08 19:30:00,
2013-11-08 13:53:00,38.0,-99.9,-100.00,North,-999,-999.0,-999.0,-999,0.02,,,0.03,,2013-11-08 19:53:00,
2013-11-08 14:02:00,38.0,-99.9,-100.00,North,-999,-999.0,-999.0,-999,0.02,,,0.03,,2013-11-08 20:02:00,
2013-11-08 14:12:00,38.0,-99.9,-100.00,North,-999,-999.0,-999.0,-999,0.02,,,0.03,,2013-11-08 20:12:00,
2013-11-08 14:22:00,38.0,-99.9,-100.00,North,-999,-999.0,-999.0,-999,0.02,,,0.03,,2013-11-08 20:22:00,
2013-11-08 14:30:00,37.0,-99.9,-100.00,North,-999,-999.0,-999.0,-999,0.02,,,0.05,,2013-11-08 20:30:00,
2013-11-08 14:53:00,37.0,-99.9,-100.00,North,-999,-999.0,-999.0,-999,0.02,,,0.05,,2013-11-08 20:53:00,
2013-11-08 15:03:00,37.0,-99.9,-100.00,North,-999,-999.0,-999.0,-999,0.02,,,0.05,,2013-11-08 21:03:00,
2013-11-08 15:12:00,37.0,-99.9,-100.00,North,-999,-999.0,-999.0,-999,0.02,,,0.05,,2013-11-08 21:12:00,
2013-11-08 15:23:00,37.0,-99.9,-100.00,North,-999,-999.0,-999.0,-999,0.02,,,0.05,,2013-11-08 21:23:00,
2013-11-08 15:30:00,36.0,-99.9,-100.00,North,-999,-999.0,-999.0,-999,0.00,,,0.05,,2013-11-08 21:30:00,
2013-11-08 15:55:00,36.0,-99.9,-100.00,North,-999,-999.0,-999.0,-999,0.00,,,0.05,,2013-11-08 21:55:00,
2013-11-08 16:04:00,36.0,-99.9,-100.00,North,-999,-999.0,-999.0,-999,0.00,,,0.05,,2013-11-08 22:04:00,
2013-11-08 16:14:00,36.0,-99.9,-100.00,North,-999,-999.0,-999.0,-999,0.00,,,0.05,,2013-11-08 22:14:00,
2013-11-08 16:24:00,36.0,-99.9,-100.00,North,-999,-999.0,-999.0,-999,0.00,,,0.05,,2013-11-08 22:24:00,
2013-11-08 16:30:00,34.0,-99.9,-100.00,North,-999,-999.0,-999.0,-999,0.01,,,0.06,,2013-11-08 22:30:00,
2013-11-08 16:53:00,34.0,-99.9,-100.00,North,-999,-999.0,-999.0,-999,0.01,,,0.06,,2013-11-08 22:53:00,
2013-11-08 17:03:00,34.0,-99.9,-100.00,North,-999,-999.0,-999.0,-999,0.01,,,0.06,,2013-11-08 23:03:00,
2013-11-08 17:12:00,34.0,-99.9,-100.00,North,-999,-999.0,-999.0,-999,0.01,,,0.06,,2013-11-08 23:12:00,
2013-11-08 17:22:00,34.0,-99.9,-100.00,North,-999,-999.0,-999.0,-999,0.01,,,0.06,,2013-11-08 23:22:00,
2013-11-08 17:30:00,31.0,-99.9,-100.00,North,-999,-999.0,-999.0,-999,0.00,,,0.06,,2013-11-08 23:30:00,
2013-11-08 17:54:00,31.0,-99.9,-100.00,North,-999,-999.0,-999.0,-999,0.00,,,0.06,,2013-11-08 23:54:00,
2013-11-08 18:02:00,31.0,-99.9,-100.00,North,-999,-999.0,-999.0,-999,0.00,,,0.06,,2013-11-09 00:02:00,
2013-11-08 18:12:00,31.0,-99.9,-100.00,North,-999,-999.0,-999.0,-999,0.00,,,0.06,,2013-11-09 00:12:00,
2013-11-08 18:22:00,31.0,-99.9,-100.00,North,-999,-999.0,-999.0,-999,0.00,,,0.06,,2013-11-09 00:22:00,
2013-11-08 18:30:00,31.0,-99.9,-100.00,North,-999,-999.0,-999.0,-999,0.00,,,0.06,,2013-11-09 00:30:00,
2013-11-08 18:52:00,31.0,-99.9,-100.00,North,-999,-999.0,-999.0,-999,0.00,,,0.06,,2013-11-09 00:52:00,
2013-11-08 19:02:00,31.0,-99.9,-100.00,North,-999,-999.0,-999.0,-999,0.00,,,0.06,,2013-11-09 01:02:00,
2013-11-08 19:12:00,31.0,-99.9,-100.00,North,-999,-999.0,-999.0,-999,0.00,,,0.06,,2013-11-09 01:12:00,
2013-11-08 19:22:00,31.0,-99.9,-100.00,North,-999,-999.0,-999.0,-999,0.00,,,0.06,,2013-11-09 01:22:00,
2013-11-08 19:30:00,31.0,-99.9,-100.00,North,-999,-999.0,-999.0,-999,0.00,,,0.06,,2013-11-09 01:30:00,
2013-11-08 19:52:00,31.0,-99.9,-100.00,North,-999,-999.0,-999.0,-999,0.00,,,0.06,,2013-11-09 01:52:00,
2013-11-08 20:02:00,31.0,-99.9,-100.00,North,-999,-999.0,-999.0,-999,0.00,,,0.06,,2013-11-09 02:02:00,
2013-11-08 20:12:00,31.0,-99.9,-100.00,North,-999,-999.0,-999.0,-999,0.00,,,0.06,,2013-11-09 02:12:00,
2013-11-08 20:22:00,31.0,-99.9,-100.00,North,-999,-999.0,-999.0,-999,0.00,,,0.06,,2013-11-09 02:22:00,
2013-11-08 20:30:00,32.0,-99.9,-100.00,North,-999,-999.0,-999.0,-999,0.00,,,0.06,,2013-11-09 02:30:00,
2013-11-08 20:52:00,32.0,-99.9,-100.00,North,-999,-999.0,-999.0,-999,0.00,,,0.06,,2013-11-09 02:52:00,
2013-11-08 21:02:00,32.0,-99.9,-100.00,North,-999,-999.0,-999.0,-999,0.00,,,0.06,,2013-11-09 03:02:00,
2013-11-08 21:12:00,32.0,-99.9,-100.00,North,-999,-999.0,-999.0,-999,0.00,,,0.06,,2013-11-09 03:12:00,
2013-11-08 21:22:00,32.0,-99.9,-100.00,North,-999,-999.0,-999.0,-999,0.00,,,0.06,,2013-11-09 03:22:00,
2013-11-08 21:30:00,32.0,-99.9,-100.00,North,-999,-999.0,-999.0,-999,0.00,,,0.06,,2013-11-09 03:30:00,
2013-11-08 21:55:00,32.0,-99.9,-100.00,North,-999,-999.0,-999.0,-999,0.00,,,0.06,,2013-11-09 03:55:00,
2013-11-08 22:04:00,32.0,-99.9,-100.00,North,-999,-999.0,-999.0,-999,0.00,,,0.06,,2013-11-09 04:04:00,
2013-11-08 22:13:00,32.0,-99.9,-100.00,North,-999,-999.0,-999.0,-999,0.00,,,0.06,,2013-11-09 04:13:00,
2013-11-08 22:24:00,32.0,-99.9,-100.00,North,-999,-999.0,-999.0,-999,0.00,,,0.06,,2013-11-09 04:24:00,
2013-11-08 22:30:00,32.0,-99.9,-100.00,North,-999,-999.0,-999.0,-999,0.00,,,0.06,,2013-11-09 04:30:00,
2013-11-08 22:54:00,32.0,-99.9,-100.00,North,-999,-999.0,-999.0,-999,0.00,,,0.06,,2013-11-09 04:54:00,
2013-11-08 23:03:00,32.0,-99.9,-100.00,North,-999,-999.0,-999.0,-999,0.00,,,0.06,,2013-11-09 05:03:00,
2013-11-08 23:13:00,32.0,-99.9,-100.00,North,-999,-999.0,-999.0,-999,0.00,,,0.06,,2013-11-09 05:13:00,
2013-11-08 23:23:00,32.0,-99.9,-100.00,North,-999,-999.0,-999.0,-999,0.00,,,0.06,,2013-11-09 05:23:00,
2013-11-08 23:30:00,32.0,-99.9,-100.00,North,-999,-999.0,-999.0,-999,0.00,,,0.06,,2013-11-09 05:30:00,
2013-11-08 23:53:00,32.0,-99.9,-100.00,North,-999,-999.0,-999.0,-999,0.00,,,0.06,,2013-11-09 05:53:00,